GW6368 Weather Reports


time (UTC)temp
F
wind
direction
speed
knots
gust
knots
rain 1hr
in
rain 24hr
in
rain mn
in
humidity
%
barometer
mb
20260505050219 71 0 0.0 0.0 0.00 0.00 0.00 82 1010.3
20260505040216 72 121 0.0 0.9 0.00 0.00 0.00 79 1010.7
20260505033003 72 0 0.0 0.0 0.00 0.00 0.00 78 1010.9
20260505030003 73 130 0.0 1.7 0.00 0.00 0.00 76 1010.9
20260505023003 74 136 0.0 1.7 0.00 0.00 0.00 74 1010.8
20260505020218 74 126 0.9 7.0 0.00 0.00 0.00 74 1010.6
20260505013003 74 119 0.0 2.6 0.00 0.00 0.00 73 1010.5
20260505010003 75 104 0.9 3.5 0.00 0.00 0.00 72 1010.5
20260505003003 76 133 0.0 2.6 0.00 0.00 0.00 70 1010.2
20260505000003 77 130 0.9 6.1 0.00 0.00 0.00 68 1010.4
20260504233003 77 132 0.9 4.3 0.00 0.00 0.00 66 1010.6
20260504230003 78 128 0.9 7.0 0.00 0.00 0.00 65 1011.0
20260504223003 78 0 0.0 0.0 0.00 0.00 0.00 65 1011.2
20260504220003 78 121 0.0 5.2 0.00 0.00 0.00 64 1011.4
20260504213218 80 123 0.0 6.1 0.00 0.00 0.00 62 1011.8
20260504210004 81 136 0.9 6.1 0.00 0.00 0.00 58 1012.1
20260504203003 81 136 0.0 4.3 0.00 0.00 0.00 58 1012.4
20260504200003 82 130 0.9 7.8 0.00 0.00 0.00 56 1012.7
20260504193218 83 134 0.9 5.2 0.00 0.00 0.00 54 1013.0
20260504190003 82 0 0.0 0.0 0.00 0.00 0.00 54 1013.4
20260504183003 83 119 0.9 7.0 0.00 0.00 0.00 56 1013.4
20260504180004 82 126 0.0 5.2 0.00 0.00 0.00 52 1014.1
20260504173003 82 128 0.0 3.5 0.00 0.00 0.00 53 1014.4
20260504170218 80 109 0.0 2.6 0.00 0.00 0.00 55 1014.7
20260504150217 76 0 0.0 0.0 0.00 0.00 0.00 64 1015.4
20260504080217 58 0 0.0 0.0 0.00 0.00 0.00 82 1016.1